QPF
0.03 0.04 0.05 0.04 0.04 0.04 0.03 0.03 0.03 0.03 0.03 0.02 0.01 0.01 0.01 0.01 0.00 0.00 0.00 0.00 0.00 0.00 0.00 0.00 0.00 0.00 0.00 0.00 0.00 0.00 0.00 0.00 0.00 0.00 0.00 0.00 0.00 0.00 0.00 0.00 0.00 0.00 0.00
0.01 0.02 0.02 0.03 0.03 0.03 0.02 0.02 0.02 0.02 0.02 0.02 0.01 0.01 0.01 0.00 0.00 0.00 0.00 0.00 0.00 0.00 0.00 0.00 0.00 0.00 0.00 0.00 0.00 0.00 0.00 0.00 0.00 0.00 0.00 0.00 0.00 0.00 0.00 0.00 0.00 0.00 0.00
0.00 0.01 0.01 0.01 0.01 0.01 0.01 0.01 0.01 0.01 0.02 0.02 0.02 0.01 0.01 0.01 0.00 0.00 0.00 0.00 0.00 0.00 0.00 0.00 0.00 0.00 0.00 0.00 0.00 0.00 0.00 0.00 0.00 0.00 0.00 0.00 0.00 0.00 0.00 0.00 0.00 0.00 0.00
0.00 0.00 0.00 0.00 0.00 0.01 0.01 0.01 0.01 0.01 0.01 0.01 0.01 0.01 0.01 0.01 0.01 0.00 0.00 0.00 0.00 0.00 0.00 0.00 0.00 0.00 0.00 0.00 0.00 0.00 0.00 0.00 0.00 0.00 0.00 0.00 0.00 0.00 0.00 0.00 0.00 0.00 0.00
0.00 0.00 0.00 0.00 0.00 0.00 0.00 0.00 0.00 0.00 0.00 0.00 0.00 0.00 0.00 0.00 0.00 0.00 0.00 0.00 0.00 0.00 0.00 0.00 0.00 0.00 0.00 0.00 0.00 0.00 0.00 0.00 0.00 0.00 0.00 0.00 0.00 0.00 0.00 0.00 0.00 0.00 0.00
0.00 0.00 0.00 0.00 0.00 0.00 0.00 0.00 0.00 0.00 0.00 0.00 0.00 0.00 0.00 0.00 0.00 0.00 0.00 0.00 0.00 0.00 0.00 0.00 0.00 0.00 0.00 0.00 0.00 0.00 0.00 0.00 0.00 0.00 0.00 0.00 0.00 0.00 0.00 0.00 0.00 0.00 0.00
0.00 0.00 0.00 0.00 0.00 0.00 0.00 0.00 0.00 0.00 0.00 0.00 0.00 0.00 0.00 0.00 0.00 0.00 0.00 0.00 0.00 0.00 0.00 0.00 0.00 0.00 0.00 0.00 0.00 0.00 0.00 0.00 0.00 0.00 0.00 0.00 0.00 0.00 0.00 0.00 0.00 0.00 0.00
0.00 0.00 0.00 0.00 0.00 0.00 0.00 0.00 0.00 0.00 0.00 0.00 0.00 0.00 0.00 0.00 0.00 0.00 0.00 0.00 0.00 0.00 0.00 0.00 0.00 0.00 0.00 0.00 0.00 0.00 0.00 0.00 0.00 0.00 0.00 0.00 0.00 0.00 0.00 0.00 0.00 0.00 0.00
0.00 0.00 0.00 0.00 0.00 0.00 0.00 0.00 0.00 0.00 0.00 0.00 0.00 0.00 0.00 0.00 0.00 0.00 0.00 0.00 0.00 0.00 0.00 0.00 0.00 0.00 0.00 0.00 0.00 0.00 0.00 0.00 0.00 0.00 0.00 0.00 0.00 0.00 0.00 0.00 0.00 0.00 0.00
0.00 0.00 0.00 0.00 0.00 0.00 0.00 0.00 0.00 0.00 0.00 0.00 0.00 0.00 0.00 0.00 0.00 0.00 0.00 0.00 0.00 0.00 0.00 0.00 0.00 0.00 0.00 0.00 0.00 0.00 0.00 0.00 0.00 0.00 0.00 0.00 0.00 0.00 0.00 0.00 0.00 0.00 0.00
0.00 0.00 0.00 0.00 0.00 0.00 0.00 0.00 0.00 0.00 0.00 0.00 0.00 0.00 0.00 0.00 0.00 0.00 0.00 0.00 0.00 0.00 0.00 0.00 0.00 0.00 0.00 0.00 0.00 0.00 0.00 0.00 0.00 0.00 0.00 0.00 0.00 0.00 0.00 0.00 0.00 0.00 0.00
0.00 0.00 0.00 0.00 0.00 0.00 0.00 0.00 0.00 0.00 0.00 0.00 0.00 0.00 0.00 0.00 0.00 0.00 0.00 0.00 0.00 0.00 0.00 0.00 0.00 0.00 0.00 0.00 0.00 0.00 0.00 0.00 0.00 0.00 0.00 0.00 0.00 0.00 0.00 0.00 0.00 0.00 0.00
0.00 0.00 0.00 0.00 0.00 0.00 0.00 0.00 0.00 0.00 0.00 0.00 0.00 0.01 0.01 0.00 0.01 0.01 0.01 0.01 0.00 0.00 0.00 0.00 0.00 0.00 0.00 0.00 0.00 0.00 0.00 0.00 0.00 0.00 0.00 0.00 0.00 0.00 0.00 0.00 0.00 0.00 0.00
0.00 0.00 0.00 0.00 0.00 0.00 0.00 0.01 0.01 0.01 0.01 0.01 0.01 0.01 0.01 0.01 0.00 0.00 0.00 0.00 0.00 0.00 0.00 0.00 0.00 0.00 0.00 0.00 0.00 0.00 0.00 0.00 0.00 0.00 0.00 0.00 0.00 0.00 0.00 0.00 0.00 0.00 0.00
0.01 0.01 0.01 0.01 0.01 0.01 0.01 0.01 0.01 0.01 0.01 0.01 0.01 0.01 0.01 0.01 0.01 0.01 0.01 0.00 0.00 0.00 0.01 0.00 0.00 0.00 0.00 0.00 0.00 0.00 0.00 0.00 0.00 0.00 0.00 0.00 0.00 0.00 0.00 0.00 0.00 0.00 0.00
0.03 0.02 0.02 0.02 0.02 0.02 0.02 0.02 0.02 0.01 0.01 0.01 0.01 0.01 0.01 0.01 0.01 0.01 0.01 0.01 0.01 0.01 0.01 0.00 0.00 0.00 0.00 0.00 0.00 0.00 0.00 0.00 0.00 0.00 0.00 0.00 0.00 0.00 0.00 0.00 0.00 0.00 0.00
0.04 0.03 0.02 0.02 0.02 0.02 0.02 0.02 0.01 0.02 0.02 0.02 0.02 0.01 0.01 0.01 0.02 0.01 0.01 0.01 0.01 0.01 0.01 0.00 0.00 0.00 0.00 0.00 0.00 0.00 0.00 0.00 0.00 0.00 0.00 0.00 0.00 0.00 0.00 0.00 0.00 0.00 0.00
0.02 0.03 0.03 0.03 0.03 0.02 0.02 0.02 0.02 0.02 0.01 0.01 0.02 0.02 0.02 0.02 0.02 0.02 0.03 0.03 0.02 0.01 0.01 0.00 0.00 0.01 0.01 0.01 0.01 0.00 0.00 0.00 0.00 0.00 0.00 0.00 0.00 0.00 0.00 0.00 0.00 0.00 0.00
0.02 0.02 0.02 0.03 0.03 0.03 0.03 0.02 0.02 0.02 0.01 0.01 0.01 0.02 0.03 0.03 0.03 0.03 0.03 0.03 0.02 0.01 0.01 0.01 0.01 0.01 0.01 0.01 0.01 0.01 0.01 0.01 0.01 0.01 0.00 0.00 0.00 0.00 0.00 0.00 0.00 0.00 0.00
0.02 0.02 0.02 0.02 0.02 0.02 0.02 0.02 0.02 0.02 0.02 0.02 0.01 0.01 0.02 0.03 0.03 0.03 0.02 0.02 0.02 0.02 0.02 0.01 0.01 0.01 0.01 0.02 0.02 0.02 0.02 0.02 0.02 0.02 0.01 0.01 0.01 0.01 0.01 0.00 0.01 0.00 0.00
0.02 0.02 0.02 0.02 0.01 0.01 0.02 0.02 0.02 0.02 0.02 0.02 0.01 0.02 0.03 0.03 0.02 0.02 0.02 0.02 0.02 0.02 0.02 0.02 0.02 0.02 0.02 0.02 0.03 0.03 0.03 0.02 0.02 0.02 0.02 0.02 0.02 0.01 0.01 0.01 0.01 0.01 0.01
0.02 0.02 0.02 0.02 0.02 0.02 0.02 0.02 0.02 0.03 0.02 0.02 0.02 0.02 0.03 0.03 0.02 0.02 0.02 0.02 0.02 0.02 0.02 0.03 0.03 0.02 0.02 0.03 0.03 0.04 0.03 0.03 0.02 0.03 0.03 0.03 0.03 0.02 0.02 0.02 0.01 0.01 0.01
0.03 0.03 0.02 0.02 0.02 0.02 0.03 0.02 0.02 0.03 0.03 0.02 0.02 0.02 0.03 0.03 0.02 0.02 0.02 0.02 0.02 0.02 0.02 0.03 0.03 0.02 0.02 0.03 0.03 0.04 0.03 0.02 0.03 0.04 0.05 0.04 0.03 0.03 0.03 0.02 0.02 0.02 0.01
0.03 0.03 0.02 0.02 0.02 0.02 0.02 0.02 0.02 0.02 0.02 0.02 0.02 0.02 0.02 0.02 0.02 0.01 0.01 0.01 0.02 0.02 0.02 0.03 0.02 0.02 0.02 0.03 0.03 0.03 0.03 0.03 0.04 0.05 0.05 0.04 0.04 0.03 0.03 0.03 0.02 0.02 0.02
0.02 0.02 0.02 0.02 0.02 0.02 0.02 0.02 0.02 0.02 0.02 0.02 0.02 0.02 0.02 0.02 0.02 0.02 0.01 0.02 0.02 0.02 0.02 0.02 0.02 0.02 0.02 0.03 0.03 0.03 0.03 0.04 0.05 0.05 0.05 0.05 0.04 0.03 0.03 0.03 0.03 0.03 0.03
0.02 0.02 0.02 0.02 0.02 0.02 0.02 0.02 0.02 0.02 0.02 0.02 0.02 0.02 0.02 0.01 0.01 0.01 0.01 0.01 0.01 0.01 0.01 0.01 0.01 0.02 0.02 0.02 0.02 0.02 0.03 0.03 0.03 0.04 0.05 0.04 0.03 0.03 0.03 0.03 0.03 0.03 0.03
MSLP
1014.47 1014.54 1014.64 1014.80 1015.03 1015.35 1015.75 1016.22 1016.75 1017.30 1017.84 1018.35 1018.81 1019.20 1019.54 1019.82 1020.06 1020.27 1020.47 1020.65 1020.80 1020.92 1021.00 1021.01 1020.97 1020.88 1020.77 1020.65 1020.57 1020.55 1020.61 1020.75 1020.97 1021.24 1021.52 1021.79 1022.02 1022.19 1022.31 1022.37 1022.41 1022.45 1022.50
1014.78 1014.83 1014.93 1015.09 1015.33 1015.65 1016.05 1016.52 1017.02 1017.54 1018.03 1018.48 1018.88 1019.21 1019.48 1019.72 1019.93 1020.12 1020.32 1020.51 1020.69 1020.84 1020.95 1021.00 1020.99 1020.94 1020.85 1020.77 1020.71 1020.70 1020.78 1020.93 1021.15 1021.43 1021.74 1022.03 1022.29 1022.50 1022.65 1022.76 1022.83 1022.88 1022.94
1015.01 1015.06 1015.17 1015.34 1015.60 1015.94 1016.34 1016.80 1017.28 1017.75 1018.19 1018.58 1018.91 1019.19 1019.42 1019.61 1019.81 1020.00 1020.21 1020.42 1020.64 1020.83 1020.98 1021.08 1021.12 1021.11 1021.06 1021.00 1020.97 1020.98 1021.06 1021.22 1021.44 1021.72 1022.03 1022.33 1022.61 1022.84 1023.01 1023.14 1023.23 1023.29 1023.35
1015.14 1015.19 1015.31 1015.51 1015.79 1016.15 1016.57 1017.02 1017.48 1017.92 1018.31 1018.66 1018.94 1019.17 1019.36 1019.54 1019.73 1019.94 1020.17 1020.42 1020.67 1020.91 1021.12 1021.27 1021.36 1021.39 1021.38 1021.34 1021.32 1021.34 1021.42 1021.57 1021.78 1022.04 1022.34 1022.63 1022.91 1023.15 1023.33 1023.47 1023.57 1023.63 1023.68
1015.16 1015.21 1015.34 1015.56 1015.87 1016.25 1016.69 1017.14 1017.59 1018.02 1018.39 1018.70 1018.95 1019.15 1019.33 1019.51 1019.71 1019.93 1020.20 1020.48 1020.78 1021.07 1021.32 1021.51 1021.64 1021.71 1021.73 1021.72 1021.71 1021.73 1021.79 1021.92 1022.10 1022.34 1022.61 1022.89 1023.15 1023.38 1023.57 1023.72 1023.82 1023.89 1023.94
1015.06 1015.10 1015.24 1015.49 1015.82 1016.23 1016.68 1017.15 1017.61 1018.02 1018.39 1018.69 1018.93 1019.13 1019.32 1019.51 1019.72 1019.97 1020.26 1020.58 1020.91 1021.23 1021.51 1021.74 1021.91 1022.00 1022.04 1022.05 1022.04 1022.05 1022.10 1022.20 1022.36 1022.56 1022.79 1023.04 1023.29 1023.52 1023.71 1023.87 1023.99 1024.07 1024.13
1014.86 1014.89 1015.03 1015.29 1015.64 1016.07 1016.54 1017.03 1017.49 1017.92 1018.30 1018.61 1018.86 1019.08 1019.28 1019.48 1019.72 1019.99 1020.29 1020.63 1020.98 1021.32 1021.63 1021.88 1022.06 1022.18 1022.24 1022.26 1022.26 1022.27 1022.30 1022.38 1022.50 1022.67 1022.87 1023.10 1023.33 1023.56 1023.76 1023.94 1024.08 1024.19 1024.27
1014.61 1014.62 1014.75 1015.00 1015.35 1015.79 1016.27 1016.77 1017.26 1017.70 1018.09 1018.42 1018.70 1018.94 1019.17 1019.39 1019.64 1019.92 1020.23 1020.58 1020.93 1021.27 1021.58 1021.84 1022.05 1022.18 1022.26 1022.30 1022.31 1022.33 1022.36 1022.43 1022.53 1022.68 1022.86 1023.08 1023.30 1023.53 1023.75 1023.95 1024.13 1024.28 1024.39
1014.35 1014.33 1014.43 1014.66 1015.01 1015.43 1015.91 1016.41 1016.91 1017.37 1017.78 1018.13 1018.44 1018.70 1018.95 1019.19 1019.45 1019.73 1020.04 1020.37 1020.71 1021.05 1021.35 1021.62 1021.83 1021.99 1022.10 1022.17 1022.21 1022.25 1022.30 1022.37 1022.48 1022.62 1022.80 1023.00 1023.23 1023.47 1023.72 1023.95 1024.16 1024.35 1024.50
1014.12 1014.06 1014.13 1014.33 1014.64 1015.04 1015.50 1015.98 1016.47 1016.93 1017.36 1017.73 1018.06 1018.35 1018.61 1018.87 1019.13 1019.41 1019.70 1020.01 1020.34 1020.65 1020.96 1021.23 1021.46 1021.65 1021.80 1021.91 1022.00 1022.08 1022.16 1022.26 1022.38 1022.53 1022.72 1022.93 1023.17 1023.42 1023.68 1023.95 1024.19 1024.42 1024.61
1013.95 1013.86 1013.89 1014.03 1014.29 1014.64 1015.06 1015.51 1015.98 1016.43 1016.85 1017.24 1017.58 1017.89 1018.17 1018.44 1018.70 1018.97 1019.25 1019.54 1019.84 1020.14 1020.44 1020.72 1020.98 1021.20 1021.40 1021.57 1021.72 1021.86 1021.99 1022.13 1022.28 1022.45 1022.65 1022.87 1023.12 1023.39 1023.67 1023.95 1024.22 1024.48 1024.71
1013.85 1013.72 1013.70 1013.79 1013.99 1014.27 1014.63 1015.03 1015.46 1015.88 1016.30 1016.69 1017.04 1017.36 1017.65 1017.93 1018.19 1018.45 1018.72 1018.99 1019.28 1019.57 1019.87 1020.16 1020.45 1020.72 1020.97 1021.20 1021.41 1021.61 1021.80 1021.99 1022.18 1022.38 1022.59 1022.83 1023.08 1023.35 1023.64 1023.93 1024.22 1024.50 1024.75
1013.81 1013.64 1013.57 1013.60 1013.72 1013.93 1014.21 1014.55 1014.93 1015.32 1015.71 1016.09 1016.45 1016.78 1017.09 1017.37 1017.64 1017.89 1018.16 1018.42 1018.70 1018.99 1019.29 1019.60 1019.92 1020.23 1020.53 1020.83 1021.10 1021.36 1021.61 1021.84 1022.07 1022.29 1022.52 1022.76 1023.01 1023.28 1023.57 1023.86 1024.15 1024.44 1024.69
1013.79 1013.60 1013.48 1013.44 1013.48 1013.61 1013.82 1014.08 1014.40 1014.75 1015.11 1015.47 1015.83 1016.16 1016.48 1016.77 1017.05 1017.32 1017.58 1017.85 1018.12 1018.42 1018.73 1019.06 1019.40 1019.74 1020.09 1020.44 1020.76 1021.07 1021.36 1021.64 1021.89 1022.13 1022.37 1022.61 1022.86 1023.12 1023.40 1023.68 1023.97 1024.25 1024.51
1013.77 1013.54 1013.37 1013.27 1013.24 1013.29 1013.42 1013.61 1013.87 1014.16 1014.49 1014.83 1015.17 1015.51 1015.83 1016.14 1016.43 1016.70 1016.98 1017.25 1017.53 1017.84 1018.16 1018.50 1018.86 1019.23 1019.61 1019.99 1020.35 1020.70 1021.02 1021.32 1021.59 1021.84 1022.09 1022.33 1022.57 1022.82 1023.08 1023.35 1023.63 1023.90 1024.16
1013.70 1013.44 1013.23 1013.07 1012.98 1012.96 1013.01 1013.14 1013.32 1013.56 1013.84 1014.15 1014.48 1014.81 1015.13 1015.44 1015.74 1016.03 1016.31 1016.60 1016.89 1017.20 1017.53 1017.88 1018.25 1018.64 1019.04 1019.43 1019.81 1020.18 1020.52 1020.83 1021.11 1021.37 1021.62 1021.85 1022.09 1022.33 1022.58 1022.85 1023.11 1023.38 1023.64
1013.59 1013.30 1013.05 1012.84 1012.69 1012.61 1012.60 1012.65 1012.77 1012.95 1013.18 1013.44 1013.74 1014.04 1014.35 1014.66 1014.96 1015.26 1015.56 1015.85 1016.15 1016.47 1016.81 1017.16 1017.54 1017.93 1018.33 1018.72 1019.11 1019.48 1019.82 1020.14 1020.43 1020.70 1020.94 1021.18 1021.42 1021.66 1021.90 1022.16 1022.42 1022.69 1022.94
1013.42 1013.11 1012.83 1012.59 1012.40 1012.26 1012.19 1012.18 1012.23 1012.34 1012.50 1012.72 1012.96 1013.23 1013.52 1013.81 1014.11 1014.40 1014.70 1015.00 1015.31 1015.63 1015.97 1016.32 1016.69 1017.08 1017.47 1017.86 1018.24 1018.61 1018.95 1019.27 1019.56 1019.83 1020.08 1020.33 1020.57 1020.81 1021.06 1021.32 1021.58 1021.85 1022.11
1013.24 1012.92 1012.62 1012.36 1012.13 1011.95 1011.83 1011.75 1011.74 1011.78 1011.87 1012.01 1012.20 1012.42 1012.66 1012.92 1013.20 1013.48 1013.78 1014.07 1014.38 1014.71 1015.04 1015.39 1015.75 1016.13 1016.50 1016.88 1017.25 1017.60 1017.94 1018.25 1018.55 1018.82 1019.08 1019.33 1019.58 1019.83 1020.09 1020.35 1020.62 1020.90 1021.17
1013.07 1012.75 1012.46 1012.19 1011.94 1011.73 1011.55 1011.42 1011.34 1011.30 1011.32 1011.39 1011.50 1011.66 1011.85 1012.07 1012.32 1012.58 1012.86 1013.16 1013.46 1013.77 1014.10 1014.44 1014.79 1015.14 1015.50 1015.85 1016.20 1016.54 1016.86 1017.17 1017.45 1017.73 1017.99 1018.25 1018.51 1018.77 1019.04 1019.32 1019.60 1019.88 1020.17
1012.94 1012.64 1012.37 1012.10 1011.85 1011.62 1011.41 1011.23 1011.08 1010.98 1010.92 1010.91 1010.95 1011.04 1011.18 1011.35 1011.56 1011.80 1012.06 1012.34 1012.63 1012.93 1013.25 1013.57 1013.89 1014.22 1014.55 1014.87 1015.19 1015.50 1015.80 1016.09 1016.37 1016.63 1016.90 1017.16 1017.43 1017.70 1017.98 1018.26 1018.56 1018.85 1019.15
1012.85 1012.60 1012.35 1012.11 1011.87 1011.63 1011.40 1011.18 1010.99 1010.82 1010.70 1010.62 1010.60 1010.63 1010.72 1010.85 1011.02 1011.23 1011.47 1011.73 1012.00 1012.28 1012.57 1012.86 1013.16 1013.45 1013.74 1014.02 1014.30 1014.57 1014.83 1015.09 1015.35 1015.60 1015.85 1016.11 1016.38 1016.65 1016.94 1017.24 1017.54 1017.85 1018.17
1012.79 1012.60 1012.40 1012.20 1011.98 1011.75 1011.51 1011.28 1011.05 1010.85 1010.68 1010.56 1010.49 1010.48 1010.53 1010.62 1010.77 1010.95 1011.16 1011.40 1011.64 1011.90 1012.15 1012.40 1012.65 1012.89 1013.12 1013.35 1013.57 1013.79 1014.01 1014.22 1014.45 1014.67 1014.91 1015.15 1015.41 1015.69 1015.98 1016.28 1016.60 1016.92 1017.25
1012.70 1012.58 1012.45 1012.29 1012.11 1011.91 1011.69 1011.46 1011.23 1011.02 1010.83 1010.69 1010.61 1010.57 1010.60 1010.68 1010.80 1010.96 1011.15 1011.35 1011.56 1011.78 1011.98 1012.18 1012.36 1012.54 1012.71 1012.86 1013.02 1013.18 1013.33 1013.50 1013.68 1013.87 1014.08 1014.30 1014.56 1014.83 1015.12 1015.43 1015.76 1016.10 1016.44
1012.54 1012.50 1012.44 1012.34 1012.21 1012.05 1011.86 1011.66 1011.45 1011.26 1011.09 1010.96 1010.88 1010.85 1010.87 1010.94 1011.06 1011.20 1011.36 1011.53 1011.71 1011.87 1012.01 1012.15 1012.26 1012.36 1012.45 1012.53 1012.61 1012.70 1012.80 1012.91 1013.04 1013.19 1013.37 1013.58 1013.82 1014.08 1014.38 1014.70 1015.04 1015.39 1015.75
1012.28 1012.32 1012.32 1012.29 1012.22 1012.12 1011.98 1011.82 1011.66 1011.50 1011.37 1011.28 1011.22 1011.22 1011.26 1011.33 1011.44 1011.57 1011.71 1011.84 1011.97 1012.07 1012.15 1012.21 1012.25 1012.27 1012.28 1012.29 1012.30 1012.32 1012.35 1012.41 1012.50 1012.61 1012.77 1012.96 1013.19 1013.46 1013.76 1014.08 1014.43 1014.80 1015.17
Thickness
5592 5592 5592 5592 5591 5590 5588 5587 5585 5581 5578 5575 5572 5569 5566 5563 5561 5558 5555 5553 5550 5548 5546 5544 5540 5537 5534 5532 5530 5528 5526 5525 5526 5519 5513 5510 5507 5504 5502 5501 5499 5498 5496
5581 5581 5581 5580 5579 5578 5576 5574 5572 5570 5567 5564 5561 5558 5555 5552 5549 5547 5544 5542 5539 5536 5534 5531 5528 5526 5523 5520 5518 5516 5514 5512 5512 5510 5502 5498 5495 5493 5491 5489 5487 5486 5485
5569 5569 5568 5568 5567 5566 5564 5562 5560 5558 5555 5552 5549 5546 5543 5540 5538 5535 5533 5531 5528 5525 5522 5519 5516 5514 5511 5508 5506 5503 5501 5500 5499 5498 5492 5487 5484 5482 5480 5478 5476 5475 5474
5557 5557 5557 5556 5556 5554 5552 5550 5548 5546 5543 5540 5537 5535 5532 5529 5526 5524 5521 5519 5516 5513 5511 5508 5505 5502 5499 5497 5494 5492 5490 5488 5487 5485 5481 5477 5473 5470 5469 5466 5464 5463 5462
5546 5546 5546 5545 5544 5542 5540 5538 5536 5534 5532 5529 5526 5523 5521 5518 5516 5513 5510 5507 5504 5501 5498 5496 5493 5491 5489 5487 5484 5481 5478 5476 5474 5473 5469 5466 5462 5460 5458 5455 5454 5452 5452
5534 5535 5535 5534 5532 5531 5529 5527 5524 5522 5520 5517 5514 5512 5509 5508 5506 5504 5500 5497 5493 5490 5487 5484 5482 5480 5478 5477 5475 5472 5469 5466 5463 5461 5458 5456 5453 5450 5448 5446 5444 5443 5443
5523 5524 5524 5523 5521 5520 5518 5516 5513 5511 5508 5506 5504 5501 5499 5497 5497 5495 5492 5487 5483 5479 5476 5474 5472 5469 5467 5464 5463 5461 5459 5458 5456 5452 5449 5447 5444 5442 5440 5437 5436 5435 5434
5512 5513 5513 5512 5511 5509 5507 5505 5503 5500 5498 5496 5494 5491 5489 5488 5487 5485 5482 5476 5472 5469 5466 5464 5461 5458 5456 5453 5451 5449 5447 5446 5445 5444 5441 5439 5437 5435 5433 5431 5428 5426 5425
5502 5503 5503 5502 5501 5499 5498 5496 5493 5491 5488 5486 5484 5482 5480 5478 5478 5476 5472 5466 5462 5459 5457 5454 5452 5449 5448 5446 5441 5439 5437 5436 5436 5434 5432 5431 5429 5427 5425 5422 5420 5418 5418
5492 5493 5493 5492 5492 5491 5489 5487 5484 5482 5479 5477 5474 5473 5471 5469 5469 5467 5464 5457 5452 5449 5447 5445 5444 5441 5440 5438 5433 5430 5428 5427 5425 5424 5422 5421 5420 5418 5417 5415 5413 5409 5408
5480 5482 5482 5482 5482 5481 5479 5477 5474 5471 5469 5466 5465 5463 5461 5460 5459 5459 5455 5448 5446 5442 5439 5437 5435 5435 5433 5431 5428 5423 5422 5420 5417 5414 5412 5411 5410 5409 5408 5406 5405 5403 5400
5468 5470 5471 5471 5471 5470 5468 5465 5463 5461 5459 5457 5455 5453 5452 5451 5451 5450 5448 5445 5440 5436 5433 5431 5428 5427 5426 5424 5422 5418 5416 5414 5409 5406 5404 5403 5401 5400 5399 5398 5397 5396 5394
5456 5458 5459 5459 5459 5459 5457 5455 5453 5452 5451 5450 5448 5446 5445 5443 5442 5443 5441 5439 5436 5430 5428 5425 5423 5421 5419 5417 5416 5413 5410 5406 5402 5399 5398 5396 5395 5394 5391 5390 5388 5387 5386
5444 5446 5447 5448 5448 5447 5447 5446 5445 5445 5444 5443 5442 5440 5439 5437 5435 5434 5433 5432 5430 5427 5422 5419 5418 5415 5413 5410 5408 5406 5403 5400 5397 5394 5392 5390 5388 5386 5384 5382 5380 5378 5376
5433 5434 5435 5436 5437 5437 5437 5438 5438 5439 5439 5439 5438 5436 5433 5432 5432 5430 5426 5424 5422 5419 5415 5411 5408 5405 5404 5401 5399 5397 5395 5393 5392 5389 5386 5384 5382 5379 5377 5375 5372 5370 5368
5422 5423 5424 5425 5426 5427 5428 5428 5429 5430 5431 5432 5431 5429 5428 5428 5427 5425 5423 5420 5417 5414 5409 5404 5402 5400 5398 5396 5394 5391 5389 5388 5386 5384 5381 5378 5376 5374 5371 5368 5365 5363 5362
5409 5411 5413 5415 5416 5417 5418 5419 5419 5421 5422 5423 5423 5423 5422 5421 5420 5418 5417 5414 5412 5409 5405 5401 5398 5395 5393 5391 5388 5387 5385 5384 5381 5378 5376 5373 5371 5368 5365 5362 5359 5357 5356
5397 5399 5402 5404 5405 5407 5408 5409 5410 5411 5412 5413 5414 5415 5415 5414 5413 5412 5410 5408 5406 5404 5401 5398 5395 5392 5389 5386 5384 5382 5380 5378 5375 5373 5371 5368 5366 5363 5360 5357 5355 5353 5351
5385 5387 5390 5392 5394 5396 5397 5399 5400 5401 5403 5404 5404 5405 5407 5407 5407 5406 5404 5402 5400 5398 5396 5394 5391 5389 5386 5383 5380 5378 5376 5373 5371 5368 5366 5364 5361 5358 5356 5354 5351 5349 5346
5373 5375 5378 5380 5382 5384 5386 5389 5390 5392 5393 5394 5395 5396 5396 5397 5397 5397 5397 5396 5395 5393 5391 5389 5387 5385 5382 5379 5376 5373 5371 5369 5366 5364 5361 5359 5356 5354 5352 5349 5346 5343 5342
5360 5362 5366 5367 5370 5373 5376 5379 5381 5383 5385 5386 5387 5388 5389 5388 5389 5389 5389 5389 5388 5388 5386 5384 5382 5380 5377 5375 5372 5369 5367 5365 5362 5360 5357 5355 5352 5349 5347 5345 5342 5339 5335
5349 5351 5353 5356 5359 5362 5365 5368 5370 5373 5375 5376 5377 5377 5380 5379 5379 5379 5379 5379 5379 5379 5378 5377 5376 5374 5372 5370 5368 5365 5363 5361 5358 5356 5353 5350 5347 5345 5342 5338 5336 5332 5329
5337 5339 5342 5345 5348 5352 5355 5357 5359 5362 5364 5366 5367 5367 5368 5369 5369 5370 5370 5370 5369 5369 5369 5368 5368 5367 5366 5364 5362 5361 5359 5357 5354 5351 5348 5345 5342 5339 5336 5333 5330 5326 5323
5326 5328 5331 5334 5337 5340 5343 5346 5349 5351 5353 5354 5356 5357 5358 5358 5359 5359 5360 5360 5360 5360 5360 5359 5359 5359 5358 5356 5355 5354 5352 5350 5348 5345 5343 5340 5337 5334 5331 5327 5324 5320 5316
5316 5317 5320 5322 5326 5329 5332 5335 5337 5339 5341 5343 5345 5346 5347 5347 5348 5348 5349 5349 5350 5350 5350 5350 5350 5350 5349 5348 5347 5346 5344 5343 5341 5338 5336 5333 5331 5328 5325 5321 5317 5314 5309
5306 5307 5310 5312 5315 5318 5320 5323 5325 5327 5329 5332 5333 5334 5335 5336 5337 5338 5339 5339 5340 5341 5341 5341 5341 5341 5340 5340 5339 5338 5337 5335 5334 5332 5329 5327 5324 5321 5317 5314 5310 5307 5303